Time,TemperatureF,DewpointF,PressureIn,WindDirection,WindDirectionDegrees,WindSpeedMPH,WindSpeedGustMPH,Humidity,HourlyPrecipIn,Conditions,Clouds,dailyrainin,SoftwareType,DateUTC
2013-02-18 00:00:00,25.1,12.8,30.17,NW,316,2.0,8.0,59,0.00,,,0.00,Wunderground v.1.15,2013-02-18 05:00:00,
2013-02-18 00:02:00,25.1,12.8,30.17,NW,316,2.0,8.0,59,0.00,,,0.00,Wunderground v.1.15,2013-02-18 05:02:00,
2013-02-18 00:03:00,25.1,12.8,30.17,NW,316,2.0,8.0,59,0.00,,,0.00,Wunderground v.1.15,2013-02-18 05:03:00,
2013-02-18 00:05:00,25.1,12.8,30.17,NW,316,2.0,8.0,59,0.00,,,0.00,Wunderground v.1.15,2013-02-18 05:05:00,
2013-02-18 00:10:00,25.1,13.2,30.17,NW,316,2.0,8.0,60,0.00,,,0.00,Wunderground v.1.15,2013-02-18 05:10:00,
2013-02-18 00:15:00,25.1,13.2,30.17,NW,316,0.0,8.0,60,0.00,,,0.00,Wunderground v.1.15,2013-02-18 05:15:00,
2013-02-18 00:20:00,25.0,12.7,30.17,NW,316,0.0,8.0,59,0.00,,,0.00,Wunderground v.1.15,2013-02-18 05:20:00,
2013-02-18 00:25:00,25.0,12.7,30.17,NW,316,0.0,8.0,59,0.00,,,0.00,Wunderground v.1.15,2013-02-18 05:25:00,
2013-02-18 00:30:00,25.0,12.7,30.17,NW,316,0.0,8.0,59,0.00,,,0.00,Wunderground v.1.15,2013-02-18 05:30:00,
2013-02-18 00:35:00,25.1,12.8,30.17,NW,316,0.0,8.0,59,0.00,,,0.00,Wunderground v.1.15,2013-02-18 05:35:00,
2013-02-18 00:40:00,25.1,13.2,30.17,NW,316,0.0,8.0,60,0.00,,,0.00,Wunderground v.1.15,2013-02-18 05:40:00,
2013-02-18 00:45:00,24.9,13.0,30.17,NW,316,0.0,8.0,60,0.00,,,0.00,Wunderground v.1.15,2013-02-18 05:45:00,
2013-02-18 00:51:00,24.7,13.1,30.17,NW,316,0.0,8.0,61,0.00,,,0.00,Wunderground v.1.15,2013-02-18 05:51:00,
2013-02-18 00:56:00,24.5,13.7,30.17,NW,316,0.0,8.0,63,0.00,,,0.00,Wunderground v.1.15,2013-02-18 05:56:00,
2013-02-18 01:01:00,24.1,14.4,30.17,NW,316,0.0,8.0,66,0.00,,,0.00,Wunderground v.1.15,2013-02-18 06:01:00,
2013-02-18 01:07:00,23.8,14.1,30.17,NW,316,1.0,8.0,66,0.00,,,0.00,Wunderground v.1.15,2013-02-18 06:07:00,
2013-02-18 01:12:00,23.6,14.2,30.17,NW,316,0.0,8.0,67,0.00,,,0.00,Wunderground v.1.15,2013-02-18 06:12:00,
2013-02-18 01:17:00,23.5,14.1,30.17,NW,316,0.0,8.0,67,0.00,,,0.00,Wunderground v.1.15,2013-02-18 06:17:00,
2013-02-18 01:22:00,23.4,14.0,30.17,NW,316,0.0,8.0,67,0.00,,,0.00,Wunderground v.1.15,2013-02-18 06:22:00,
2013-02-18 01:27:00,23.4,13.7,30.18,NW,316,0.0,8.0,66,0.00,,,0.00,Wunderground v.1.15,2013-02-18 06:27:00,
2013-02-18 01:32:00,23.2,13.9,30.18,NW,316,0.0,8.0,67,0.00,,,0.00,Wunderground v.1.15,2013-02-18 06:32:00,
2013-02-18 01:37:00,23.1,13.8,30.18,NW,316,0.0,8.0,67,0.00,,,0.00,Wunderground v.1.15,2013-02-18 06:37:00,
2013-02-18 01:42:00,23.2,13.5,30.17,NW,316,0.0,8.0,66,0.00,,,0.00,Wunderground v.1.15,2013-02-18 06:42:00,
2013-02-18 01:47:00,23.4,14.0,30.17,NW,316,0.0,8.0,67,0.00,,,0.00,Wunderground v.1.15,2013-02-18 06:47:00,
2013-02-18 01:52:00,23.4,14.0,30.17,NW,316,0.0,8.0,67,0.00,,,0.00,Wunderground v.1.15,2013-02-18 06:52:00,
2013-02-18 01:58:00,23.4,14.0,30.18,NW,316,0.0,8.0,67,0.00,,,0.00,Wunderground v.1.15,2013-02-18 06:58:00,
2013-02-18 02:04:00,23.6,14.2,30.18,NW,316,0.0,8.0,67,0.00,,,0.00,Wunderground v.1.15,2013-02-18 07:04:00,
2013-02-18 02:08:00,23.8,14.1,30.18,NW,316,0.0,8.0,66,0.00,,,0.00,Wunderground v.1.15,2013-02-18 07:08:00,
2013-02-18 02:13:00,23.8,13.7,30.18,NW,316,0.0,8.0,65,0.00,,,0.00,Wunderground v.1.15,2013-02-18 07:13:00,
2013-02-18 02:19:00,23.7,13.6,30.18,NW,316,0.0,8.0,65,0.00,,,0.00,Wunderground v.1.15,2013-02-18 07:19:00,
2013-02-18 02:24:00,23.4,14.0,30.18,NW,316,0.0,8.0,67,0.00,,,0.00,Wunderground v.1.15,2013-02-18 07:24:00,
2013-02-18 02:29:00,23.3,14.3,30.19,NW,316,0.0,8.0,68,0.00,,,0.00,Wunderground v.1.15,2013-02-18 07:29:00,
2013-02-18 02:34:00,23.3,14.3,30.19,NW,316,0.0,8.0,68,0.00,,,0.00,Wunderground v.1.15,2013-02-18 07:34:00,
2013-02-18 02:40:00,23.2,14.5,30.19,NW,316,0.0,8.0,69,0.00,,,0.00,Wunderground v.1.15,2013-02-18 07:40:00,
2013-02-18 02:46:00,23.1,14.4,30.19,NW,316,0.0,8.0,69,0.00,,,0.00,Wunderground v.1.15,2013-02-18 07:46:00,
2013-02-18 02:51:00,23.2,14.5,30.19,NW,316,0.0,8.0,69,0.00,,,0.00,Wunderground v.1.15,2013-02-18 07:51:00,
2013-02-18 02:56:00,23.2,14.2,30.19,NW,316,0.0,8.0,68,0.00,,,0.00,Wunderground v.1.15,2013-02-18 07:56:00,
2013-02-18 03:01:00,23.3,14.0,30.19,NW,316,0.0,8.0,67,0.00,,,0.00,Wunderground v.1.15,2013-02-18 08:01:00,
2013-02-18 03:06:00,23.5,14.1,30.19,NW,316,0.0,8.0,67,0.00,,,0.00,Wunderground v.1.15,2013-02-18 08:06:00,
2013-02-18 03:11:00,23.5,14.1,30.19,NW,316,0.0,8.0,67,0.00,,,0.00,Wunderground v.1.15,2013-02-18 08:11:00,
2013-02-18 03:16:00,23.3,14.0,30.19,NW,316,0.0,8.0,67,0.00,,,0.00,Wunderground v.1.15,2013-02-18 08:16:00,
2013-02-18 03:22:00,23.1,14.1,30.19,NW,316,0.0,8.0,68,0.00,,,0.00,Wunderground v.1.15,2013-02-18 08:22:00,
2013-02-18 03:27:00,23.0,13.7,30.19,NW,316,0.0,8.0,67,0.00,,,0.00,Wunderground v.1.15,2013-02-18 08:27:00,
2013-02-18 03:32:00,22.8,13.8,30.19,NW,316,0.0,8.0,68,0.00,,,0.00,Wunderground v.1.15,2013-02-18 08:32:00,
2013-02-18 03:37:00,22.6,14.0,30.19,NW,316,0.0,8.0,69,0.00,,,0.00,Wunderground v.1.15,2013-02-18 08:37:00,
2013-02-18 03:43:00,22.6,14.3,30.20,NW,316,0.0,8.0,70,0.00,,,0.00,Wunderground v.1.15,2013-02-18 08:43:00,
2013-02-18 03:48:00,22.5,13.9,30.20,NW,316,0.0,8.0,69,0.00,,,0.00,Wunderground v.1.15,2013-02-18 08:48:00,
2013-02-18 03:53:00,22.6,14.0,30.20,NW,316,0.0,8.0,69,0.00,,,0.00,Wunderground v.1.15,2013-02-18 08:53:00,
2013-02-18 03:58:00,22.6,14.0,30.20,NW,316,0.0,8.0,69,0.00,,,0.00,Wunderground v.1.15,2013-02-18 08:58:00,
2013-02-18 04:03:00,22.8,14.1,30.20,NW,316,0.0,8.0,69,0.00,,,0.00,Wunderground v.1.15,2013-02-18 09:03:00,
2013-02-18 04:08:00,22.7,14.1,30.20,NW,316,0.0,8.0,69,0.00,,,0.00,Wunderground v.1.15,2013-02-18 09:08:00,
2013-02-18 04:13:00,22.5,14.2,30.20,NW,316,0.0,8.0,70,0.00,,,0.00,Wunderground v.1.15,2013-02-18 09:13:00,
2013-02-18 04:18:00,22.4,14.1,30.20,NW,316,0.0,8.0,70,0.00,,,0.00,Wunderground v.1.15,2013-02-18 09:18:00,
2013-02-18 04:23:00,22.2,14.2,30.20,NW,316,0.0,8.0,71,0.00,,,0.00,Wunderground v.1.15,2013-02-18 09:23:00,
2013-02-18 04:28:00,22.1,14.1,30.20,NW,316,0.0,8.0,71,0.00,,,0.00,Wunderground v.1.15,2013-02-18 09:28:00,
2013-02-18 04:33:00,22.0,14.0,30.20,NW,316,0.0,8.0,71,0.00,,,0.00,Wunderground v.1.15,2013-02-18 09:33:00,
2013-02-18 04:38:00,21.9,13.9,30.20,NW,316,0.0,8.0,71,0.00,,,0.00,Wunderground v.1.15,2013-02-18 09:38:00,
2013-02-18 04:43:00,21.8,14.2,30.21,NW,316,0.0,8.0,72,0.00,,,0.00,Wunderground v.1.15,2013-02-18 09:43:00,
2013-02-18 04:48:00,21.8,14.2,30.21,NW,316,1.0,8.0,72,0.00,,,0.00,Wunderground v.1.15,2013-02-18 09:48:00,
2013-02-18 04:53:00,21.8,14.5,30.21,NW,316,2.0,8.0,73,0.00,,,0.00,Wunderground v.1.15,2013-02-18 09:53:00,
2013-02-18 04:58:00,21.7,14.4,30.22,NW,316,1.0,8.0,73,0.00,,,0.00,Wunderground v.1.15,2013-02-18 09:58:00,
2013-02-18 05:03:00,21.6,14.3,30.22,NW,316,0.0,8.0,73,0.00,,,0.00,Wunderground v.1.15,2013-02-18 10:03:00,
2013-02-18 05:09:00,21.6,14.3,30.22,NW,316,0.0,8.0,73,0.00,,,0.00,Wunderground v.1.15,2013-02-18 10:09:00,
2013-02-18 05:14:00,21.6,14.3,30.22,NW,316,0.0,8.0,73,0.00,,,0.00,Wunderground v.1.15,2013-02-18 10:14:00,
2013-02-18 05:19:00,21.6,14.3,30.22,NW,316,0.0,8.0,73,0.00,,,0.00,Wunderground v.1.15,2013-02-18 10:19:00,
2013-02-18 05:24:00,21.6,14.0,30.22,NW,316,0.0,8.0,72,0.00,,,0.00,Wunderground v.1.15,2013-02-18 10:24:00,
2013-02-18 05:29:00,21.6,14.0,30.22,NW,316,0.0,8.0,72,0.00,,,0.00,Wunderground v.1.15,2013-02-18 10:29:00,
2013-02-18 05:34:00,21.7,14.1,30.22,NW,316,0.0,8.0,72,0.00,,,0.00,Wunderground v.1.15,2013-02-18 10:34:00,
2013-02-18 05:39:00,21.7,14.4,30.22,NW,316,0.0,8.0,73,0.00,,,0.00,Wunderground v.1.15,2013-02-18 10:39:00,
2013-02-18 05:44:00,21.8,14.5,30.23,NW,316,0.0,8.0,73,0.00,,,0.00,Wunderground v.1.15,2013-02-18 10:44:00,
2013-02-18 05:49:00,21.7,14.4,30.23,NW,316,0.0,8.0,73,0.00,,,0.00,Wunderground v.1.15,2013-02-18 10:49:00,
2013-02-18 05:55:00,21.6,14.6,30.23,NW,316,0.0,8.0,74,0.00,,,0.00,Wunderground v.1.15,2013-02-18 10:55:00,
2013-02-18 06:00:00,21.5,14.5,30.24,NW,316,0.0,8.0,74,0.00,,,0.00,Wunderground v.1.15,2013-02-18 11:00:00,
2013-02-18 06:05:00,21.3,14.6,30.24,NW,316,1.0,8.0,75,0.00,,,0.00,Wunderground v.1.15,2013-02-18 11:05:00,
2013-02-18 06:10:00,21.2,14.5,30.24,NW,316,2.0,2.0,75,0.00,,,0.00,Wunderground v.1.15,2013-02-18 11:10:00,
2013-02-18 06:15:00,21.1,14.4,30.24,NW,316,1.0,8.0,75,0.00,,,0.00,Wunderground v.1.15,2013-02-18 11:15:00,
2013-02-18 06:20:00,20.9,14.5,30.24,NW,316,2.0,8.0,76,0.00,,,0.00,Wunderground v.1.15,2013-02-18 11:20:00,
2013-02-18 06:25:00,20.9,14.5,30.24,NW,316,2.0,8.0,76,0.00,,,0.00,Wunderground v.1.15,2013-02-18 11:25:00,
2013-02-18 06:31:00,20.9,14.5,30.24,NW,316,3.0,8.0,76,0.00,,,0.00,Wunderground v.1.15,2013-02-18 11:31:00,
2013-02-18 06:36:00,20.9,14.8,30.24,NW,316,4.0,8.0,77,0.00,,,0.00,Wunderground v.1.15,2013-02-18 11:36:00,
2013-02-18 06:42:00,21.0,14.9,30.24,NW,316,4.0,8.0,77,0.00,,,0.00,Wunderground v.1.15,2013-02-18 11:42:00,
2013-02-18 06:47:00,21.1,15.0,30.24,NW,316,4.0,8.0,77,0.00,,,0.00,Wunderground v.1.15,2013-02-18 11:47:00,
2013-02-18 06:52:00,21.1,15.0,30.24,NW,316,3.0,8.0,77,0.00,,,0.00,Wunderground v.1.15,2013-02-18 11:52:00,
2013-02-18 06:57:00,21.1,15.0,30.24,NW,316,4.0,8.0,77,0.00,,,0.00,Wunderground v.1.15,2013-02-18 11:57:00,
2013-02-18 07:03:00,21.1,15.0,30.24,NW,316,4.0,8.0,77,0.00,,,0.00,Wunderground v.1.15,2013-02-18 12:03:00,
2013-02-18 07:08:00,21.0,14.9,30.24,NW,316,2.0,8.0,77,0.00,,,0.00,Wunderground v.1.15,2013-02-18 12:08:00,
2013-02-18 07:13:00,20.9,14.8,30.24,NW,316,1.0,8.0,77,0.00,,,0.00,Wunderground v.1.15,2013-02-18 12:13:00,
2013-02-18 07:18:00,21.0,14.9,30.24,NW,316,3.0,8.0,77,0.00,,,0.00,Wunderground v.1.15,2013-02-18 12:18:00,
2013-02-18 07:23:00,21.0,14.9,30.24,NW,316,4.0,8.0,77,0.00,,,0.00,Wunderground v.1.15,2013-02-18 12:23:00,
2013-02-18 07:28:00,21.0,14.9,30.25,NW,316,5.0,8.0,77,0.00,,,0.00,Wunderground v.1.15,2013-02-18 12:28:00,
2013-02-18 07:33:00,21.1,15.0,30.25,NW,316,6.0,8.0,77,0.00,,,0.00,Wunderground v.1.15,2013-02-18 12:33:00,
2013-02-18 07:38:00,21.2,15.1,30.25,NW,316,7.0,9.0,77,0.00,,,0.00,Wunderground v.1.15,2013-02-18 12:38:00,
2013-02-18 07:43:00,21.3,15.5,30.25,NW,316,5.0,8.0,78,0.00,,,0.00,Wunderground v.1.15,2013-02-18 12:43:00,
2013-02-18 07:48:00,21.3,15.5,30.25,NW,316,1.0,8.0,78,0.00,,,0.00,Wunderground v.1.15,2013-02-18 12:48:00,
2013-02-18 07:53:00,21.6,15.8,30.25,NW,316,0.0,8.0,78,0.00,,,0.00,Wunderground v.1.15,2013-02-18 12:53:00,
2013-02-18 07:58:00,22.0,16.2,30.25,NW,316,1.0,8.0,78,0.00,,,0.00,Wunderground v.1.15,2013-02-18 12:58:00,
2013-02-18 08:03:00,22.3,16.5,30.25,NW,316,0.0,8.0,78,0.00,,,0.00,Wunderground v.1.15,2013-02-18 13:03:00,
2013-02-18 08:08:00,22.6,17.1,30.25,NW,316,0.0,8.0,79,0.00,,,0.00,Wunderground v.1.15,2013-02-18 13:08:00,
2013-02-18 08:13:00,22.6,17.1,30.26,NW,316,0.0,8.0,79,0.00,,,0.00,Wunderground v.1.15,2013-02-18 13:13:00,
2013-02-18 08:18:00,22.4,16.9,30.26,NW,316,0.0,8.0,79,0.00,,,0.00,Wunderground v.1.15,2013-02-18 13:18:00,
2013-02-18 08:23:00,22.5,17.3,30.26,NW,316,0.0,8.0,80,0.00,,,0.00,Wunderground v.1.15,2013-02-18 13:23:00,
2013-02-18 08:29:00,23.0,17.2,30.26,NW,316,0.0,8.0,78,0.00,,,0.00,Wunderground v.1.15,2013-02-18 13:29:00,
2013-02-18 08:35:00,23.8,17.0,30.26,NW,316,0.0,8.0,75,0.00,,,0.00,Wunderground v.1.15,2013-02-18 13:35:00,
2013-02-18 08:40:00,24.6,17.2,30.26,NW,316,1.0,1.0,73,0.00,,,0.00,Wunderground v.1.15,2013-02-18 13:40:00,
2013-02-18 08:45:00,25.5,17.7,30.27,NW,316,2.0,8.0,72,0.00,,,0.00,Wunderground v.1.15,2013-02-18 13:45:00,
2013-02-18 08:50:00,26.4,17.6,30.27,NW,316,2.0,2.0,69,0.00,,,0.00,Wunderground v.1.15,2013-02-18 13:50:00,
2013-02-18 08:55:00,27.2,19.0,30.27,NW,316,1.0,8.0,71,0.00,,,0.00,Wunderground v.1.15,2013-02-18 13:55:00,
2013-02-18 09:00:00,27.6,19.4,30.27,NW,316,0.0,8.0,71,0.00,,,0.00,Wunderground v.1.15,2013-02-18 14:00:00,
2013-02-18 09:05:00,27.9,19.7,30.27,NW,316,0.0,8.0,71,0.00,,,0.00,Wunderground v.1.15,2013-02-18 14:05:00,
2013-02-18 09:10:00,28.4,20.2,30.27,NW,316,0.0,8.0,71,0.00,,,0.00,Wunderground v.1.15,2013-02-18 14:10:00,
2013-02-18 09:16:00,28.8,20.6,30.27,NW,316,0.0,8.0,71,0.00,,,0.00,Wunderground v.1.15,2013-02-18 14:16:00,
2013-02-18 09:22:00,29.0,20.4,30.27,NW,316,1.0,8.0,70,0.00,,,0.00,Wunderground v.1.15,2013-02-18 14:22:00,
2013-02-18 09:27:00,29.3,19.7,30.27,NW,316,1.0,8.0,67,0.00,,,0.00,Wunderground v.1.15,2013-02-18 14:27:00,
2013-02-18 09:32:00,29.4,19.4,30.27,NW,316,1.0,8.0,66,0.00,,,0.00,Wunderground v.1.15,2013-02-18 14:32:00,
2013-02-18 09:37:00,30.1,19.7,30.27,NW,316,1.0,8.0,65,0.00,,,0.00,Wunderground v.1.15,2013-02-18 14:37:00,
2013-02-18 09:42:00,30.7,19.2,30.27,NW,316,3.0,8.0,62,0.00,,,0.00,Wunderground v.1.15,2013-02-18 14:42:00,
2013-02-18 09:48:00,31.2,18.9,30.27,NW,316,4.0,8.0,60,0.00,,,0.00,Wunderground v.1.15,2013-02-18 14:48:00,
2013-02-18 09:53:00,31.4,19.1,30.27,NW,316,3.0,8.0,60,0.00,,,0.00,Wunderground v.1.15,2013-02-18 14:53:00,
2013-02-18 09:58:00,32.0,18.9,30.27,NW,316,3.0,8.0,58,0.00,,,0.00,Wunderground v.1.15,2013-02-18 14:58:00,
2013-02-18 10:03:00,32.5,19.3,30.27,NW,316,4.0,8.0,58,0.00,,,0.00,Wunderground v.1.15,2013-02-18 15:03:00,
2013-02-18 10:08:00,32.8,19.2,30.27,NW,316,4.0,8.0,57,0.00,,,0.00,Wunderground v.1.15,2013-02-18 15:08:00,
2013-02-18 10:13:00,33.5,19.9,30.26,NW,316,3.0,8.0,57,0.00,,,0.00,Wunderground v.1.15,2013-02-18 15:13:00,
2013-02-18 10:18:00,34.4,19.9,30.26,NW,316,1.0,8.0,55,0.00,,,0.00,Wunderground v.1.15,2013-02-18 15:18:00,
2013-02-18 10:24:00,35.2,20.6,30.26,NW,316,1.0,8.0,55,0.00,,,0.00,Wunderground v.1.15,2013-02-18 15:24:00,
2013-02-18 10:29:00,36.2,20.7,30.26,NW,316,1.0,8.0,53,0.00,,,0.00,Wunderground v.1.15,2013-02-18 15:29:00,
2013-02-18 10:34:00,37.0,20.5,30.26,NW,316,1.0,8.0,51,0.00,,,0.00,Wunderground v.1.15,2013-02-18 15:34:00,
2013-02-18 10:40:00,37.6,20.6,30.26,NW,316,2.0,8.0,50,0.00,,,0.00,Wunderground v.1.15,2013-02-18 15:40:00,
2013-02-18 10:45:00,38.0,20.5,30.25,NW,316,3.0,8.0,49,0.00,,,0.00,Wunderground v.1.15,2013-02-18 15:45:00,
2013-02-18 10:50:00,38.5,21.0,30.25,NW,316,3.0,3.0,49,0.00,,,0.00,Wunderground v.1.15,2013-02-18 15:50:00,
2013-02-18 10:55:00,38.9,20.9,30.25,NW,316,2.0,8.0,48,0.00,,,0.00,Wunderground v.1.15,2013-02-18 15:55:00,
2013-02-18 11:01:00,39.4,21.3,30.25,SE,136,2.0,5.0,48,0.00,,,0.00,Wunderground v.1.15,2013-02-18 16:01:00,
2013-02-18 11:06:00,40.1,21.0,30.25,SE,134,2.0,8.0,46,0.00,,,0.00,Wunderground v.1.15,2013-02-18 16:06:00,
2013-02-18 11:11:00,41.4,21.1,30.25,SE,130,1.0,8.0,44,0.00,,,0.00,Wunderground v.1.15,2013-02-18 16:11:00,
2013-02-18 11:17:00,42.7,22.8,30.25,ENE,61,1.0,8.0,45,0.00,,,0.00,Wunderground v.1.15,2013-02-18 16:17:00,
2013-02-18 11:23:00,43.4,21.8,30.25,East,79,2.0,8.0,42,0.00,,,0.00,Wunderground v.1.15,2013-02-18 16:23:00,
2013-02-18 11:29:00,44.2,23.1,30.24,East,79,5.0,11.0,43,0.00,,,0.00,Wunderground v.1.15,2013-02-18 16:29:00,
2013-02-18 11:34:00,45.4,23.6,30.24,ESE,112,4.0,8.0,42,0.00,,,0.00,Wunderground v.1.15,2013-02-18 16:34:00,
2013-02-18 11:40:00,45.8,22.8,30.24,East,94,5.0,5.0,40,0.00,,,0.00,Wunderground v.1.15,2013-02-18 16:40:00,
2013-02-18 11:46:00,46.9,23.8,30.23,ESE,107,4.0,18.0,40,0.00,,,0.00,Wunderground v.1.15,2013-02-18 16:46:00,
2013-02-18 11:51:00,46.9,23.8,30.23,ENE,74,6.0,8.0,40,0.00,,,0.00,Wunderground v.1.15,2013-02-18 16:51:00,
2013-02-18 11:56:00,47.7,23.9,30.23,ESE,115,5.0,8.0,39,0.00,,,0.00,Wunderground v.1.15,2013-02-18 16:56:00,
2013-02-18 12:01:00,47.6,24.4,30.23,SE,131,6.0,13.0,40,0.00,,,0.00,Wunderground v.1.15,2013-02-18 17:01:00,
2013-02-18 12:06:00,47.7,23.9,30.23,South,173,11.0,17.0,39,0.00,,,0.00,Wunderground v.1.15,2013-02-18 17:06:00,
2013-02-18 12:12:00,47.5,23.1,30.23,SE,138,16.0,18.0,38,0.00,,,0.00,Wunderground v.1.15,2013-02-18 17:12:00,
2013-02-18 12:18:00,47.9,24.7,30.23,ESE,103,14.0,26.0,40,0.00,,,0.00,Wunderground v.1.15,2013-02-18 17:18:00,
2013-02-18 12:24:00,48.3,23.8,30.23,ENE,65,9.0,23.0,38,0.00,,,0.00,Wunderground v.1.15,2013-02-18 17:24:00,
2013-02-18 12:29:00,48.8,23.6,30.21,ESE,113,8.0,24.0,37,0.00,,,0.00,Wunderground v.1.15,2013-02-18 17:29:00,
2013-02-18 12:35:00,49.2,24.6,30.21,East,82,10.0,10.0,38,0.00,,,0.00,Wunderground v.1.15,2013-02-18 17:35:00,
2013-02-18 12:40:00,49.7,24.5,30.21,ESE,113,9.0,9.0,37,0.00,,,0.00,Wunderground v.1.15,2013-02-18 17:40:00,
2013-02-18 12:46:00,50.1,24.2,30.21,SE,136,8.0,15.0,36,0.00,,,0.00,Wunderground v.1.15,2013-02-18 17:46:00,
2013-02-18 12:51:00,49.5,24.3,30.21,ESE,111,12.0,12.0,37,0.00,,,0.00,Wunderground v.1.15,2013-02-18 17:51:00,
2013-02-18 12:57:00,50.4,25.1,30.19,ESE,123,11.0,17.0,37,0.00,,,0.00,Wunderground v.1.15,2013-02-18 17:57:00,
2013-02-18 13:02:00,50.2,24.2,30.19,SE,137,14.0,16.0,36,0.00,,,0.00,Wunderground v.1.15,2013-02-18 18:02:00,
2013-02-18 13:08:00,50.0,24.7,30.19,SE,129,19.0,30.0,37,0.00,,,0.00,Wunderground v.1.15,2013-02-18 18:08:00,
2013-02-18 13:13:00,50.4,24.4,30.17,SE,128,15.0,19.0,36,0.00,,,0.00,Wunderground v.1.15,2013-02-18 18:13:00,
2013-02-18 13:18:00,50.5,24.5,30.17,SE,125,16.0,30.0,36,0.00,,,0.00,Wunderground v.1.15,2013-02-18 18:18:00,
2013-02-18 13:24:00,50.1,24.8,30.17,ESE,109,21.0,24.0,37,0.00,,,0.00,Wunderground v.1.15,2013-02-18 18:24:00,
2013-02-18 13:29:00,50.2,24.9,30.17,SE,145,19.0,24.0,37,0.00,,,0.00,Wunderground v.1.15,2013-02-18 18:29:00,
2013-02-18 13:34:00,51.3,25.9,30.17,SSE,153,16.0,25.0,37,0.00,,,0.00,Wunderground v.1.15,2013-02-18 18:34:00,
2013-02-18 13:40:00,51.5,26.1,30.17,SE,146,16.0,27.0,37,0.00,,,0.00,Wunderground v.1.15,2013-02-18 18:40:00,
2013-02-18 13:45:00,50.5,24.5,30.17,SE,128,20.0,33.0,36,0.00,,,0.00,Wunderground v.1.15,2013-02-18 18:45:00,
2013-02-18 13:51:00,51.0,25.0,30.17,SE,138,20.0,23.0,36,0.00,,,0.00,Wunderground v.1.15,2013-02-18 18:51:00,
2013-02-18 13:56:00,50.8,24.8,30.17,SE,132,19.0,24.0,36,0.00,,,0.00,Wunderground v.1.15,2013-02-18 18:56:00,
2013-02-18 14:01:00,50.6,25.3,30.16,ESE,119,21.0,22.0,37,0.00,,,0.00,Wunderground v.1.15,2013-02-18 19:01:00,
2013-02-18 14:07:00,50.9,26.2,30.16,East,80,15.0,22.0,38,0.00,,,0.00,Wunderground v.1.15,2013-02-18 19:07:00,
2013-02-18 14:12:00,50.6,25.9,30.15,SE,131,17.0,23.0,38,0.00,,,0.00,Wunderground v.1.15,2013-02-18 19:12:00,
2013-02-18 14:17:00,51.3,26.5,30.15,SE,133,16.0,23.0,38,0.00,,,0.00,Wunderground v.1.15,2013-02-18 19:17:00,
2013-02-18 14:22:00,51.7,26.2,30.15,East,81,14.0,21.0,37,0.00,,,0.00,Wunderground v.1.15,2013-02-18 19:22:00,
2013-02-18 14:28:00,51.8,26.3,30.15,SE,139,14.0,21.0,37,0.00,,,0.00,Wunderground v.1.15,2013-02-18 19:28:00,
2013-02-18 14:33:00,51.4,26.6,30.15,SE,140,14.0,24.0,38,0.00,,,0.00,Wunderground v.1.15,2013-02-18 19:33:00,
2013-02-18 14:38:00,50.9,26.2,30.15,SE,124,18.0,24.0,38,0.00,,,0.00,Wunderground v.1.15,2013-02-18 19:38:00,
2013-02-18 14:43:00,50.9,25.5,30.14,ESE,110,17.0,25.0,37,0.00,,,0.00,Wunderground v.1.15,2013-02-18 19:43:00,
2013-02-18 14:49:00,50.9,26.8,30.14,ESE,123,17.0,34.0,39,0.00,,,0.00,Wunderground v.1.15,2013-02-18 19:49:00,
2013-02-18 14:54:00,51.0,25.6,30.14,ESE,117,17.0,24.0,37,0.00,,,0.00,Wunderground v.1.15,2013-02-18 19:54:00,
2013-02-18 14:59:00,51.0,26.3,30.13,SE,139,17.0,24.0,38,0.00,,,0.00,Wunderground v.1.15,2013-02-18 19:59:00,
2013-02-18 15:04:00,51.0,26.3,30.13,ESE,103,19.0,36.0,38,0.00,,,0.00,Wunderground v.1.15,2013-02-18 20:04:00,
2013-02-18 15:10:00,51.3,26.5,30.13,ESE,119,18.0,18.0,38,0.00,,,0.00,Wunderground v.1.15,2013-02-18 20:10:00,
2013-02-18 15:15:00,51.0,26.3,30.13,ESE,122,17.0,27.0,38,0.00,,,0.00,Wunderground v.1.15,2013-02-18 20:15:00,
2013-02-18 15:21:00,50.6,25.9,30.13,ESE,108,20.0,23.0,38,0.00,,,0.00,Wunderground v.1.15,2013-02-18 20:21:00,
2013-02-18 15:26:00,50.3,26.3,30.13,SSE,148,22.0,35.0,39,0.00,,,0.00,Wunderground v.1.15,2013-02-18 20:26:00,
2013-02-18 15:32:00,50.8,26.1,30.13,ESE,107,17.0,19.0,38,0.00,,,0.00,Wunderground v.1.15,2013-02-18 20:32:00,
2013-02-18 15:37:00,50.8,26.1,30.13,SE,141,17.0,31.0,38,0.00,,,0.00,Wunderground v.1.15,2013-02-18 20:37:00,
2013-02-18 15:42:00,50.7,26.0,30.13,ESE,113,23.0,26.0,38,0.00,,,0.00,Wunderground v.1.15,2013-02-18 20:42:00,
2013-02-18 15:47:00,50.3,25.6,30.13,SE,124,23.0,29.0,38,0.00,,,0.00,Wunderground v.1.15,2013-02-18 20:47:00,
2013-02-18 15:53:00,50.1,26.7,30.13,SSE,148,21.0,23.0,40,0.00,,,0.00,Wunderground v.1.15,2013-02-18 20:53:00,
2013-02-18 15:58:00,50.0,26.6,30.13,ESE,105,19.0,25.0,40,0.00,,,0.00,Wunderground v.1.15,2013-02-18 20:58:00,
2013-02-18 16:04:00,49.6,26.2,30.13,SE,136,22.0,42.0,40,0.00,,,0.00,Wunderground v.1.15,2013-02-18 21:04:00,
2013-02-18 16:09:00,49.6,26.2,30.13,SE,137,25.0,42.0,40,0.00,,,0.00,Wunderground v.1.15,2013-02-18 21:09:00,
2013-02-18 16:15:00,49.8,25.8,30.13,SE,130,22.0,26.0,39,0.00,,,0.00,Wunderground v.1.15,2013-02-18 21:15:00,
2013-02-18 16:20:00,49.7,25.7,30.13,SE,125,21.0,21.0,39,0.00,,,0.00,Wunderground v.1.15,2013-02-18 21:20:00,
2013-02-18 16:26:00,49.4,25.4,30.13,ESE,123,23.0,33.0,39,0.00,,,0.00,Wunderground v.1.15,2013-02-18 21:26:00,
2013-02-18 16:32:00,49.6,26.2,30.12,SE,144,19.0,21.0,40,0.00,,,0.00,Wunderground v.1.15,2013-02-18 21:32:00,
2013-02-18 16:38:00,49.6,25.6,30.12,SE,144,15.0,25.0,39,0.00,,,0.00,Wunderground v.1.15,2013-02-18 21:38:00,
2013-02-18 16:43:00,49.3,26.0,30.11,East,96,18.0,24.0,40,0.00,,,0.00,Wunderground v.1.15,2013-02-18 21:43:00,
2013-02-18 16:49:00,48.7,25.4,30.11,SE,126,22.0,46.0,40,0.00,,,0.00,Wunderground v.1.15,2013-02-18 21:49:00,
2013-02-18 16:54:00,48.5,25.8,30.11,SSE,158,21.0,23.0,41,0.00,,,0.00,Wunderground v.1.15,2013-02-18 21:54:00,
2013-02-18 16:59:00,48.3,25.7,30.11,SSE,153,17.0,23.0,41,0.00,,,0.00,Wunderground v.1.15,2013-02-18 21:59:00,
2013-02-18 17:04:00,47.9,25.9,30.11,SE,128,19.0,25.0,42,0.00,,,0.00,Wunderground v.1.15,2013-02-18 22:04:00,
2013-02-18 17:10:00,47.6,25.6,30.11,SE,139,25.0,25.0,42,0.00,,,0.00,Wunderground v.1.15,2013-02-18 22:10:00,
2013-02-18 17:15:00,47.4,25.4,30.11,SE,128,23.0,32.0,42,0.00,,,0.00,Wunderground v.1.15,2013-02-18 22:15:00,
2013-02-18 17:20:00,47.1,25.7,30.11,East,101,20.0,28.0,43,0.00,,,0.00,Wunderground v.1.15,2013-02-18 22:20:00,
2013-02-18 17:25:00,46.9,25.5,30.11,SE,130,21.0,28.0,43,0.00,,,0.00,Wunderground v.1.15,2013-02-18 22:25:00,
2013-02-18 17:31:00,46.7,25.4,30.11,SSE,155,21.0,28.0,43,0.00,,,0.00,Wunderground v.1.15,2013-02-18 22:31:00,
2013-02-18 17:36:00,46.5,25.2,30.11,ESE,111,24.0,30.0,43,0.00,,,0.00,Wunderground v.1.15,2013-02-18 22:36:00,
2013-02-18 17:41:00,46.2,25.5,30.11,SE,134,24.0,26.0,44,0.00,,,0.00,Wunderground v.1.15,2013-02-18 22:41:00,
2013-02-18 17:47:00,46.0,24.7,30.11,SE,128,22.0,27.0,43,0.00,,,0.00,Wunderground v.1.15,2013-02-18 22:47:00,
2013-02-18 17:52:00,45.9,24.6,30.11,SSE,159,23.0,23.0,43,0.00,,,0.00,Wunderground v.1.15,2013-02-18 22:52:00,
2013-02-18 17:58:00,45.7,25.0,30.11,SE,128,21.0,25.0,44,0.00,,,0.00,Wunderground v.1.15,2013-02-18 22:58:00,
2013-02-18 18:04:00,45.4,24.7,30.11,SE,127,19.0,20.0,44,0.00,,,0.00,Wunderground v.1.15,2013-02-18 23:04:00,
2013-02-18 18:09:00,45.3,24.6,30.11,ESE,109,20.0,34.0,44,0.00,,,0.00,Wunderground v.1.15,2013-02-18 23:09:00,
2013-02-18 18:14:00,45.2,24.6,30.11,SE,137,21.0,26.0,44,0.00,,,0.00,Wunderground v.1.15,2013-02-18 23:14:00,
2013-02-18 18:19:00,45.0,24.4,30.11,ESE,111,19.0,26.0,44,0.00,,,0.00,Wunderground v.1.15,2013-02-18 23:19:00,
2013-02-18 18:25:00,44.8,24.2,30.11,ESE,115,17.0,19.0,44,0.00,,,0.00,Wunderground v.1.15,2013-02-18 23:25:00,
2013-02-18 18:30:00,44.6,24.5,30.10,SSE,153,17.0,18.0,45,0.00,,,0.00,Wunderground v.1.15,2013-02-18 23:30:00,
2013-02-18 18:36:00,44.5,24.5,30.10,SE,135,18.0,20.0,45,0.00,,,0.00,Wunderground v.1.15,2013-02-18 23:36:00,
2013-02-18 18:41:00,44.3,24.3,30.10,SE,132,17.0,18.0,45,0.00,,,0.00,Wunderground v.1.15,2013-02-18 23:41:00,
2013-02-18 18:47:00,44.1,24.1,30.11,SSE,149,17.0,21.0,45,0.00,,,0.00,Wunderground v.1.15,2013-02-18 23:47:00,
2013-02-18 18:52:00,44.0,24.5,30.11,SE,127,17.0,17.0,46,0.00,,,0.00,Wunderground v.1.15,2013-02-18 23:52:00,
2013-02-18 18:57:00,43.8,24.3,30.11,SE,138,17.0,21.0,46,0.00,,,0.00,Wunderground v.1.15,2013-02-18 23:57:00,
2013-02-18 19:03:00,43.8,24.3,30.11,ESE,119,18.0,21.0,46,0.00,,,0.00,Wunderground v.1.15,2013-02-19 00:03:00,
2013-02-18 19:08:00,43.8,24.3,30.11,SSE,154,20.0,24.0,46,0.00,,,0.00,Wunderground v.1.15,2013-02-19 00:08:00,
2013-02-18 19:13:00,43.8,24.3,30.10,ESE,120,21.0,25.0,46,0.00,,,0.00,Wunderground v.1.15,2013-02-19 00:13:00,
2013-02-18 19:19:00,43.6,24.2,30.10,SE,134,21.0,25.0,46,0.00,,,0.00,Wunderground v.1.15,2013-02-19 00:19:00,
2013-02-18 19:25:00,43.6,24.2,30.10,SSE,150,21.0,28.0,46,0.00,,,0.00,Wunderground v.1.15,2013-02-19 00:25:00,
2013-02-18 19:30:00,43.5,24.6,30.10,ESE,103,22.0,29.0,47,0.00,,,0.00,Wunderground v.1.15,2013-02-19 00:30:00,
2013-02-18 19:35:00,43.4,24.5,30.10,ESE,119,21.0,29.0,47,0.00,,,0.00,Wunderground v.1.15,2013-02-19 00:35:00,
2013-02-18 19:41:00,43.4,24.5,30.10,SE,145,19.0,20.0,47,0.00,,,0.00,Wunderground v.1.15,2013-02-19 00:41:00,
2013-02-18 19:47:00,43.2,24.3,30.10,SE,136,18.0,21.0,47,0.00,,,0.00,Wunderground v.1.15,2013-02-19 00:47:00,
2013-02-18 19:52:00,43.2,24.3,30.10,SE,130,18.0,18.0,47,0.00,,,0.00,Wunderground v.1.15,2013-02-19 00:52:00,
2013-02-18 19:58:00,43.2,24.3,30.10,SE,146,18.0,31.0,47,0.00,,,0.00,Wunderground v.1.15,2013-02-19 00:58:00,
2013-02-18 20:03:00,43.2,24.3,30.10,SE,142,18.0,29.0,47,0.00,,,0.00,Wunderground v.1.15,2013-02-19 01:03:00,
2013-02-18 20:09:00,43.2,24.3,30.10,SE,126,20.0,29.0,47,0.00,,,0.00,Wunderground v.1.15,2013-02-19 01:09:00,
2013-02-18 20:15:00,43.1,24.7,30.10,ESE,115,20.0,20.0,48,0.00,,,0.00,Wunderground v.1.15,2013-02-19 01:15:00,
2013-02-18 20:20:00,43.0,24.6,30.10,SE,125,18.0,21.0,48,0.00,,,0.00,Wunderground v.1.15,2013-02-19 01:20:00,
2013-02-18 20:26:00,43.1,24.7,30.10,SE,135,18.0,21.0,48,0.00,,,0.00,Wunderground v.1.15,2013-02-19 01:26:00,
2013-02-18 20:31:00,43.0,24.6,30.10,ESE,117,16.0,17.0,48,0.00,,,0.00,Wunderground v.1.15,2013-02-19 01:31:00,
2013-02-18 20:36:00,43.1,24.7,30.10,South,169,15.0,19.0,48,0.00,,,0.00,Wunderground v.1.15,2013-02-19 01:36:00,
2013-02-18 20:41:00,43.1,24.7,30.10,SE,134,16.0,30.0,48,0.00,,,0.00,Wunderground v.1.15,2013-02-19 01:41:00,
2013-02-18 20:46:00,43.2,24.8,30.09,ESE,119,18.0,31.0,48,0.00,,,0.00,Wunderground v.1.15,2013-02-19 01:46:00,
2013-02-18 20:51:00,43.2,25.3,30.09,ESE,119,19.0,19.0,49,0.00,,,0.00,Wunderground v.1.15,2013-02-19 01:51:00,
2013-02-18 20:57:00,43.2,25.3,30.10,ESE,107,17.0,20.0,49,0.00,,,0.00,Wunderground v.1.15,2013-02-19 01:57:00,
2013-02-18 21:02:00,43.2,25.3,30.10,SSE,165,17.0,17.0,49,0.00,,,0.00,Wunderground v.1.15,2013-02-19 02:02:00,
2013-02-18 21:07:00,43.1,25.2,30.10,ESE,113,17.0,22.0,49,0.00,,,0.00,Wunderground v.1.15,2013-02-19 02:07:00,
2013-02-18 21:12:00,43.1,25.2,30.09,SE,139,18.0,31.0,49,0.00,,,0.00,Wunderground v.1.15,2013-02-19 02:12:00,
2013-02-18 21:18:00,42.9,25.5,30.09,ESE,115,20.0,31.0,50,0.00,,,0.00,Wunderground v.1.15,2013-02-19 02:18:00,
2013-02-18 21:23:00,42.7,25.3,30.09,SE,124,22.0,36.0,50,0.00,,,0.00,Wunderground v.1.15,2013-02-19 02:23:00,
2013-02-18 21:28:00,42.6,25.2,30.08,East,101,23.0,36.0,50,0.00,,,0.00,Wunderground v.1.15,2013-02-19 02:28:00,
2013-02-18 21:34:00,42.4,25.5,30.08,ESE,120,21.0,29.0,51,0.00,,,0.00,Wunderground v.1.15,2013-02-19 02:34:00,
2013-02-18 21:39:00,42.4,25.5,30.08,SE,142,22.0,29.0,51,0.00,,,0.00,Wunderground v.1.15,2013-02-19 02:39:00,
2013-02-18 21:45:00,42.2,25.3,30.08,SE,136,21.0,24.0,51,0.00,,,0.00,Wunderground v.1.15,2013-02-19 02:45:00,
2013-02-18 21:50:00,42.1,25.7,30.08,SE,127,19.0,25.0,52,0.00,,,0.00,Wunderground v.1.15,2013-02-19 02:50:00,
2013-02-18 21:55:00,42.0,25.6,30.08,ESE,120,21.0,35.0,52,0.00,,,0.00,Wunderground v.1.15,2013-02-19 02:55:00,
2013-02-18 22:00:00,41.9,25.5,30.07,SE,130,22.0,22.0,52,0.00,,,0.00,Wunderground v.1.15,2013-02-19 03:00:00,
2013-02-18 22:06:00,41.8,25.4,30.07,SE,134,22.0,33.0,52,0.00,,,0.00,Wunderground v.1.15,2013-02-19 03:06:00,
2013-02-18 22:12:00,41.7,25.8,30.08,SSE,157,21.0,30.0,53,0.00,,,0.00,Wunderground v.1.15,2013-02-19 03:12:00,
2013-02-18 22:17:00,41.6,25.7,30.08,SE,131,23.0,30.0,53,0.00,,,0.00,Wunderground v.1.15,2013-02-19 03:17:00,
2013-02-18 22:23:00,41.6,25.3,30.08,SSE,148,25.0,41.0,52,0.00,,,0.00,Wunderground v.1.15,2013-02-19 03:23:00,
2013-02-18 22:29:00,41.7,25.4,30.07,SE,137,28.0,41.0,52,0.00,,,0.00,Wunderground v.1.15,2013-02-19 03:29:00,
2013-02-18 22:34:00,41.7,25.4,30.07,SSE,148,27.0,38.0,52,0.00,,,0.00,Wunderground v.1.15,2013-02-19 03:34:00,
2013-02-18 22:39:00,41.7,25.4,30.07,SSE,148,27.0,38.0,52,0.00,,,0.00,Wunderground v.1.15,2013-02-19 03:39:00,
2013-02-18 22:44:00,41.7,25.4,30.06,East,91,28.0,30.0,52,0.00,,,0.00,Wunderground v.1.15,2013-02-19 03:44:00,
2013-02-18 22:50:00,41.6,25.3,30.06,SE,130,27.0,27.0,52,0.00,,,0.00,Wunderground v.1.15,2013-02-19 03:50:00,
2013-02-18 22:55:00,41.4,25.5,30.06,SE,126,26.0,29.0,53,0.00,,,0.00,Wunderground v.1.15,2013-02-19 03:55:00,
2013-02-18 23:01:00,41.1,25.3,30.05,SE,126,25.0,28.0,53,0.00,,,0.00,Wunderground v.1.15,2013-02-19 04:01:00,
2013-02-18 23:07:00,41.1,25.3,30.05,SE,125,29.0,37.0,53,0.00,,,0.00,Wunderground v.1.15,2013-02-19 04:07:00,
2013-02-18 23:12:00,41.1,25.3,30.05,SE,146,32.0,38.0,53,0.00,,,0.00,Wunderground v.1.15,2013-02-19 04:12:00,
2013-02-18 23:17:00,41.0,25.2,30.05,SE,146,32.0,38.0,53,0.00,,,0.00,Wunderground v.1.15,2013-02-19 04:17:00,
2013-02-18 23:22:00,40.7,25.3,30.05,SE,131,30.0,30.0,54,0.00,,,0.00,Wunderground v.1.15,2013-02-19 04:22:00,
2013-02-18 23:28:00,40.6,25.2,30.05,SSE,160,27.0,33.0,54,0.00,,,0.00,Wunderground v.1.15,2013-02-19 04:28:00,
2013-02-18 23:33:00,40.6,25.2,30.05,South,171,29.0,40.0,54,0.00,,,0.00,Wunderground v.1.15,2013-02-19 04:33:00,
2013-02-18 23:38:00,40.5,25.1,30.05,SE,136,31.0,40.0,54,0.00,,,0.00,Wunderground v.1.15,2013-02-19 04:38:00,
2013-02-18 23:44:00,40.4,25.1,30.05,ESE,118,30.0,44.0,54,0.00,,,0.00,Wunderground v.1.15,2013-02-19 04:44:00,
2013-02-18 23:49:00,40.4,25.5,30.05,ESE,121,30.0,44.0,55,0.00,,,0.00,Wunderground v.1.15,2013-02-19 04:49:00,
2013-02-18 23:54:00,40.2,25.3,30.05,SE,133,29.0,32.0,55,0.00,,,0.00,Wunderground v.1.15,2013-02-19 04:54:00,
2013-02-18 23:59:00,40.2,25.3,30.04,ESE,118,28.0,46.0,55,0.00,,,0.00,Wunderground v.1.15,2013-02-19 04:59:00,